Погода Родино

Погода Родино : погода сейчас, прогноз погоды и архив. Всё, что Вы хотите узнать о погоде Родино!

Поиск расширенной информации на нашем сайте:

Другие новости

Новости СМИ2

Главная страница сайта

Новости сайта

03.07.2017

Напоминаем, что на нашем специализированном сайте Метеоцентр.Азия вы можете получить высокодетализированные автоматические прогнозы погоды по пунктам России, СНГ и мира в авиационном формате (включающие направление и скорость ветра, видимость, явления погоды, количество и форму облачности, нижнюю и верхнюю границу облачности).

Рекомендуем: бани сауны екатеринбурга

Погода Родино - сегодня

Время (UTC), дата Ветер
(°,м/с) 
Видим.   Явления Облачность Т
(°С)
Тd
(°С)
f(%) Тe
(°С)
Pmin
(гПа)
dP
(гПа)
Po
(мм)
O2
(г/м3)
Тmin Tmax R s Состояние
почвы
09 20.08.17 320 (СЗ) 20000 м    8/8 300 м кучево-дожд. 
[Cb cap]
+20.4 +7.4 43 +20  1020.7  -1.1  752  281           
12 20.08.17 320 (СЗ) 4{11}  20000 м    8/6 300 м кучево-дожд., средняя, верхняя 
[Cb cap|Ac trans|Cc]
+17.1 +8.8 58 +17  1021.1  0.1  752  284    +21.1       
15 20.08.17 160 (Ю) 20000 м    5/0 средняя, верхняя 
[Ac trans|Ci sp]
+11.2 +8.9 86 +12  1022.1  0.6  752  290           
18 20.08.17 180 (Ю) 20000 м    3/0 верхняя 
[Ci sp]
+8.2 +7.4 95 +9  1022.7  0.4  752  293           
21 20.08.17 170 (Ю) 20000 м    3/0 верхняя 
[Ci sp]
+6 +5.6 97 +7  1002.3  0.1  753  296           
00 21.08.17 130 (ЮВ) 20000 м    5/3 300 м кучево-дожд., верхняя 
[Cb cap|Ci sp]
+5.4 +5 97 +6  1023  753  297  +4.8        сухая 
03 21.08.17 150 (ЮВ) 20000 м    4/0 средняя, верхняя 
[Ac trans|Ci sp]
+16.1 +11.9 76 +21  1022.2  753  284           
06 21.08.17 240 (ЮЗ) 20000 м    8/5 300 м кучево-дожд., верхняя 
[Cb cap|Ci sp]
+21.3 +7.3 40 +21  1021.4  -0.5  752  280           
09 21.08.17 340 (С) 20000 м    8/4 300 м кучево-дожд., верхняя 
[Cb cap|Ci sp]
+22 +7.3 39 +22  1020.6  -0.7  752  279           
12 21.08.17 330 (СЗ) 20000 м    8/4 300 м кучево-дожд., верхняя 
[Cb cap|Ci sp]
+22.1 +7.8 40 +22  1020.3  -0.3  751  279    +23.3       
15 21.08.17 060 (СВ) 20000 м    6/4 300 м кучево-дожд., средняя, верхняя 
[Cb cap|Ac trans|Ci sp]
+14.3 +10.7 79 +18  1021.8  752  286           
18 21.08.17 тихо ()   20000 м    6/3 300 м кучево-дожд., верхняя 
[Cb cap|Ci sp]
+10 +9.1 94 +10  1022.1  752  291           
21 21.08.17 тихо ()   20000 м    3/0 верхняя 
[Ci sp]
+9 +8.1 94 +9  1022.3  0.1  752  292           
00 22.08.17 070 (В) 20000 м  туман поземный  3/0 верхняя 
[Ci sp]
+7.3 +6.9 97 +8  1023  0.5  753  294  +7.1        сухая 
03 22.08.17 070 (В) 20000 м    3/0 средняя, верхняя 
[Ac lent|Ci fib]
+18.1 +12 68 +23  1022.1  -0.1  753  282           
06 22.08.17 090 (В) 20000 м    1/0 верхняя 
[Ci sp]
+22 +7.5 39 +22  1021.7  -0.1  752  279           
09 22.08.17 040 (СВ) 20000 м    3/0 верхняя 
[Ci fib]
+23.8 +6.8 34 +24               
12 22.08.17 350 (С) 20000 м    3/0 средняя, верхняя 
[Ac lent|Cc]
+23.4 +6.6 34 +23  1020.2  -0.4  751  278    +24.2       
15 22.08.17 100 (В) 20000 м    4/0 верхняя 
[Ci sp]
+15 +10.4 74 +18  1021.2  0.5  752  285           
18 22.08.17 170 (Ю) 20000 м    6/0 верхняя 
[Ci sp]
+12.8 +9.5 80 +14  1021  -0.4  751  288           
21 22.08.17 190 (Ю) 20000 м    10/0 верхняя 
[Ci sp]
+14.1 +10.4 78 +17  1020.4  -0.4  751  286           
00 23.08.17 230 (ЮЗ) 20000 м    9/9 300 м кучево-дожд. 
[Cb cap]
+14.5 +10.2 75 +16  1020.6  0.2  751  286  +12.1        сухая 
03 23.08.17 360 (С) 20000 м    6/3 300 м кучево-дожд., верхняя 
[Cb cap|Ci sp]
+20 +13.3 65 +26  1020.7  0.5  752  280           
06 23.08.17 020 (С) 20000 м    9/9 300 м кучево-дожд. 
[Cb cap]
+22.7 +15.5 64 +32  1021.5  0.9  752  277           
09 23.08.17 050 (СВ) 20000 м    6/6 300 м кучево-дожд. 
[Cb cap]
+24.4 +10.8 42 +27  1021.8  0.4  753  276           
Время (UTC), дата Ветер
(°,м/с) 
Видим.   Явления Облачность Т
(°С)
Тd
(°С)
f(%) Тe
(°С)
Pmin
(гПа)
dP
(гПа)
Po
(мм)
O2
(г/м3)
Тmin Tmax R s Состояние
почвы

Для получения пояснительной информации подведите курсор к названию столбца.

ПОГОДА Родино - архив

Всё, что Вы хотите узнать о погоде Родино - удобно и подробно!

Выберите нужную дату (начиная с 1 января 2015* года) и нажмите кнопку "Найти".
Будут отображены архивные сводки погоды по пункту Родино, начиная с указанной даты.


Отображать данные в формате CSV (для использования в таблицах Excel)


Внимание! Наш архив погоды предназначен исключительно для личного некоммерческого использования в познавательных целях. Если Вам необходимы официальные справки о состоянии погоды (для производственных, юридических, коммерческих и т.п. целей), обращайтесь в органы Росгидромета.

*Примечание: данная дата относится к архиву по метеостанциям СССР (Россия, СНГ, Балтия).
Архив по метеостанциям Зарубежной Европы и Азии (кроме Китая) хранится 10 дней, по другим регионам земного шара (Китай, Африка, Америка, Австралия, Океания) - 1 день.

Родино - район местоположения метеостанции


Название, широта, долгота, высота метеостанции:
Родино 52.5°ш. 80.2°д. 59 м над ур. моря [Российская Федерация]

Дополнительная информация

В oтличие oт бoльшинства пoгoдных сайтoв мы публикуем пoдрoбную метеoинфoрмацию в детальнoм прoфессиoнальнoм фoрмате.

Характеристики температуры и влажнoсти вoздуха измеряются на высoте 2 м в тени вдали oт зданий и деревьев.
Скoрoсть ветра измеряется на высoте 10 м (на урoвне рoста челoвека скoрoсть ветра ниже в 1.5-2 раза). Если метеoстанция нахoдится в гoрoде или в лесу, тo скoрoсть ветра занижена на 2-4 м/с пo сравнению с oткрытым местoм. Скoрoсть ветра над акватoриями крупных рек и oзёр, а также на вершинах хoлмoв на 2-5 м/с выше, чем в oбычных услoвиях.
Атмoсфернoе давление в разных тoчках местнoсти мoжет значительнo oтличаться oт давления на метеoстанции, в зависимoсти oт услoвий рельефа (при пoдъёме на 10 м давление пoнижается примернo на 1 мм рт.ст.).